ABY3DF OMDB-OOMS

Flight info

Callsign ABY3DF
Flight time 0h 44m
Altitude 25000
Route ANVIX L223 TARDI N629 MUSUK T511 MCT
Aircraft A20N/M-SDE2E3FGHIRWXY/LB1

Departure

Time 2026-05-04 21:16
Airport Dubai International Airport (OMDB)

Arrival

Time 2026-05-04 22:00
Airport Muscat International Airport (OOMS)
Time Latitude Longitude Altitude Speed Heading
2026-05-04 20:48 25.24342 55.37361 10 ft 0 kts 210°
2026-05-04 21:02 25.24343 55.37361 10 ft 2 kts 210°
2026-05-04 21:03 25.24354 55.37368 12 ft 0 kts 211°
2026-05-04 21:03 25.24363 55.37374 11 ft 2 kts 213°
2026-05-04 21:03 25.24377 55.37384 10 ft 2 kts 212°
2026-05-04 21:04 25.24391 55.37393 10 ft 2 kts 210°
2026-05-04 21:04 25.24405 55.37402 10 ft 2 kts 203°
2026-05-04 21:04 25.24421 55.37406 10 ft 2 kts 166°
2026-05-04 21:04 25.24437 55.37400 11 ft 2 kts 148°
2026-05-04 21:05 25.24450 55.37389 10 ft 2 kts 131°
2026-05-04 21:05 25.24453 55.37385 10 ft 0 kts 124°
2026-05-04 21:09 25.24444 55.37400 12 ft 4 kts 122°
2026-05-04 21:09 25.24416 55.37452 12 ft 8 kts 121°
2026-05-04 21:09 25.24396 55.37490 12 ft 10 kts 121°
2026-05-04 21:09 25.24342 55.37587 11 ft 12 kts 122°
2026-05-04 21:10 25.24314 55.37635 11 ft 12 kts 122°
2026-05-04 21:10 25.24308 55.37647 12 ft 0 kts 120°
2026-05-04 21:10 25.24303 55.37656 11 ft 3 kts 121°
2026-05-04 21:11 25.24281 55.37697 11 ft 8 kts 121°
2026-05-04 21:11 25.24269 55.37767 11 ft 11 kts 64°
2026-05-04 21:11 25.24332 55.37816 11 ft 7 kts 36°
2026-05-04 21:11 25.24333 55.37817 11 ft 0 kts 36°
2026-05-04 21:12 25.24336 55.37819 11 ft 0 kts 36°
2026-05-04 21:12 25.24350 55.37830 13 ft 4 kts 36°
2026-05-04 21:12 25.24385 55.37857 11 ft 8 kts 34°
2026-05-04 21:13 25.24439 55.37897 11 ft 11 kts 34°
2026-05-04 21:13 25.24510 55.37951 13 ft 14 kts 34°
2026-05-04 21:13 25.24581 55.38005 11 ft 14 kts 34°
2026-05-04 21:13 25.24609 55.38025 11 ft 2 kts 34°
2026-05-04 21:14 25.24631 55.38041 12 ft 6 kts 32°
2026-05-04 21:14 25.24675 55.38072 11 ft 9 kts 31°
2026-05-04 21:14 25.24739 55.38111 11 ft 11 kts 19°
2026-05-04 21:14 25.24783 55.38066 12 ft 10 kts 303°
2026-05-04 21:15 25.24857 55.37932 12 ft 46 kts 301°
2026-05-04 21:15 25.25148 55.37408 11 ft 111 kts 301°
2026-05-04 21:15 25.25646 55.36513 9 ft 159 kts 301°
2026-05-04 21:15 25.26274 55.35407 324 ft 171 kts 301°
2026-05-04 21:16 25.26911 55.34323 986 ft 166 kts 302°
2026-05-04 21:16 25.27514 55.33227 1578 ft 167 kts 301°
2026-05-04 21:16 25.28124 55.32090 2013 ft 180 kts 301°
2026-05-04 21:16 25.28795 55.30845 2339 ft 197 kts 300°
2026-05-04 21:17 25.29199 55.29327 2586 ft 223 kts 272°
2026-05-04 21:17 25.28806 55.27605 3014 ft 240 kts 245°
2026-05-04 21:17 25.28070 55.25926 3646 ft 244 kts 245°
2026-05-04 21:17 25.27336 55.24254 3927 ft 246 kts 245°
2026-05-04 21:18 25.26588 55.22523 4469 ft 250 kts 246°
2026-05-04 21:18 25.25842 55.20781 5300 ft 251 kts 246°
2026-05-04 21:18 25.25101 55.19042 6030 ft 255 kts 246°
2026-05-04 21:18 25.24028 55.17448 6713 ft 263 kts 219°
2026-05-04 21:19 25.22371 55.16581 7420 ft 267 kts 189°
2026-05-04 21:19 25.20523 55.16520 8033 ft 274 kts 171°
2026-05-04 21:19 25.18722 55.17243 8606 ft 279 kts 142°
2026-05-04 21:19 25.17429 55.18804 9339 ft 276 kts 116°
2026-05-04 21:20 25.16562 55.20732 9794 ft 291 kts 112°
2026-05-04 21:20 25.15669 55.22824 10091 ft 305 kts 113°
2026-05-04 21:20 25.14727 55.24940 10813 ft 307 kts 115°
2026-05-04 21:20 25.13762 55.27025 11518 ft 310 kts 116°
2026-05-04 21:21 25.12747 55.29164 12191 ft 314 kts 116°
2026-05-04 21:21 25.11723 55.31293 12885 ft 318 kts 117°
2026-05-04 21:21 25.10684 55.33469 13571 ft 321 kts 114°
2026-05-04 21:21 25.09756 55.35714 14161 ft 325 kts 114°
2026-05-04 21:22 25.08819 55.37990 14766 ft 329 kts 114°
2026-05-04 21:22 25.07858 55.40319 15375 ft 333 kts 114°
2026-05-04 21:22 25.06898 55.42652 15926 ft 340 kts 114°
2026-05-04 21:22 25.05938 55.45101 16110 ft 359 kts 113°
2026-05-04 21:23 25.04945 55.47708 16286 ft 377 kts 112°
2026-05-04 21:23 25.03903 55.50445 16519 ft 391 kts 113°
2026-05-04 21:23 25.02845 55.53211 17051 ft 396 kts 113°
2026-05-04 21:23 25.01696 55.55960 17616 ft 399 kts 119°
2026-05-04 21:24 25.00269 55.58626 18164 ft 403 kts 122°
2026-05-04 21:24 24.98824 55.61286 18690 ft 406 kts 122°
2026-05-04 21:24 24.97368 55.63974 19201 ft 409 kts 121°
2026-05-04 21:24 24.95919 55.66652 19703 ft 412 kts 122°
2026-05-04 21:25 24.94431 55.69393 20205 ft 416 kts 123°
2026-05-04 21:25 24.92782 55.71993 20698 ft 418 kts 127°
2026-05-04 21:25 24.91048 55.74596 21201 ft 421 kts 127°
2026-05-04 21:25 24.89316 55.77205 21701 ft 424 kts 127°
2026-05-04 21:26 24.87579 55.79824 22174 ft 428 kts 127°
2026-05-04 21:26 24.85819 55.82477 22678 ft 431 kts 127°
2026-05-04 21:26 24.84034 55.85167 23160 ft 435 kts 128°
2026-05-04 21:26 24.82243 55.87838 23588 ft 438 kts 128°
2026-05-04 21:27 24.80398 55.90559 23979 ft 441 kts 128°
2026-05-04 21:27 24.78534 55.93219 24383 ft 443 kts 132°
2026-05-04 21:27 24.76404 55.95669 24670 ft 445 kts 139°
2026-05-04 21:27 24.74113 55.98008 24773 ft 446 kts 139°
2026-05-04 21:28 24.71849 56.00324 24796 ft 446 kts 139°
2026-05-04 21:28 24.69589 56.02642 24797 ft 446 kts 139°
2026-05-04 21:28 24.67309 56.04985 24802 ft 445 kts 139°
2026-05-04 21:28 24.65050 56.07310 24805 ft 446 kts 139°
2026-05-04 21:29 24.62788 56.09639 24804 ft 446 kts 139°
2026-05-04 21:29 24.60518 56.11976 24810 ft 446 kts 139°
2026-05-04 21:29 24.58273 56.14283 24811 ft 446 kts 139°
2026-05-04 21:29 24.56103 56.16751 24810 ft 447 kts 132°
2026-05-04 21:30 24.54075 56.19351 24812 ft 447 kts 132°
2026-05-04 21:30 24.52060 56.21925 24805 ft 448 kts 133°
2026-05-04 21:30 24.50018 56.24527 24808 ft 448 kts 133°
2026-05-04 21:30 24.47998 56.27098 24801 ft 448 kts 133°
2026-05-04 21:31 24.43936 56.32263 24773 ft 448 kts 133°
2026-05-04 21:31 24.41892 56.34860 24756 ft 448 kts 133°
2026-05-04 21:31 24.39845 56.37460 24748 ft 448 kts 133°
2026-05-04 21:32 24.37828 56.40020 24740 ft 448 kts 133°
2026-05-04 21:32 24.35775 56.42625 24729 ft 448 kts 133°
2026-05-04 21:32 24.33754 56.45188 24720 ft 448 kts 133°
2026-05-04 21:32 24.31704 56.47787 24716 ft 448 kts 133°
2026-05-04 21:33 24.29684 56.50402 24707 ft 449 kts 129°
2026-05-04 21:33 24.27858 56.53140 24711 ft 450 kts 127°
2026-05-04 21:33 24.26012 56.55931 24711 ft 450 kts 127°
2026-05-04 21:33 24.24168 56.58713 24712 ft 450 kts 127°
2026-05-04 21:34 24.22345 56.61459 24718 ft 450 kts 127°
2026-05-04 21:34 24.20486 56.64256 24722 ft 450 kts 127°
2026-05-04 21:34 24.18655 56.67009 24731 ft 450 kts 127°
2026-05-04 21:34 24.16798 56.69799 24736 ft 450 kts 127°
2026-05-04 21:35 24.14970 56.72544 24744 ft 450 kts 127°
2026-05-04 21:35 24.13115 56.75329 24750 ft 450 kts 127°
2026-05-04 21:35 24.11281 56.78080 24762 ft 450 kts 127°
2026-05-04 21:35 24.09426 56.80862 24768 ft 451 kts 127°
2026-05-04 21:36 24.07571 56.83641 24773 ft 451 kts 127°
2026-05-04 21:36 24.05733 56.86393 24769 ft 451 kts 127°
2026-05-04 21:36 24.03873 56.89178 24770 ft 451 kts 127°
2026-05-04 21:36 24.02032 56.91934 24771 ft 451 kts 127°
2026-05-04 21:37 24.00171 56.94716 24772 ft 451 kts 127°
2026-05-04 21:37 23.98339 56.97455 24768 ft 451 kts 127°
2026-05-04 21:37 23.96474 57.00242 24770 ft 451 kts 127°
2026-05-04 21:37 23.94612 57.03021 24769 ft 451 kts 127°
2026-05-04 21:38 23.92768 57.05774 24769 ft 451 kts 127°
2026-05-04 21:38 23.90925 57.08523 24766 ft 451 kts 127°
2026-05-04 21:38 23.89059 57.11303 24765 ft 451 kts 127°
2026-05-04 21:38 23.87214 57.14051 24762 ft 452 kts 127°
2026-05-04 21:39 23.85344 57.16835 24603 ft 452 kts 127°
2026-05-04 21:39 23.83486 57.19599 24380 ft 450 kts 127°
2026-05-04 21:39 23.81645 57.22337 24158 ft 447 kts 127°
2026-05-04 21:39 23.79826 57.25040 23941 ft 445 kts 127°
2026-05-04 21:40 23.77994 57.27761 23719 ft 443 kts 127°
2026-05-04 21:40 23.76167 57.30472 23505 ft 442 kts 127°
2026-05-04 21:40 23.74370 57.33157 23271 ft 440 kts 125°
2026-05-04 21:40 23.72859 57.36076 23008 ft 439 kts 114°
2026-05-04 21:41 23.71860 57.39190 22677 ft 437 kts 104°
2026-05-04 21:41 23.71308 57.42485 22040 ft 438 kts 98°
2026-05-04 21:41 23.70851 57.45751 21389 ft 437 kts 98°
2026-05-04 21:41 23.70392 57.49002 20731 ft 435 kts 98°
2026-05-04 21:42 23.69930 57.52241 20181 ft 431 kts 97°
2026-05-04 21:42 23.69462 57.55490 19608 ft 427 kts 97°
2026-05-04 21:42 23.69005 57.58647 19069 ft 422 kts 97°
2026-05-04 21:42 23.68551 57.61780 18516 ft 419 kts 97°
2026-05-04 21:43 23.68097 57.64899 18016 ft 413 kts 97°
2026-05-04 21:43 23.67648 57.67988 17513 ft 406 kts 97°
2026-05-04 21:43 23.67209 57.71014 16892 ft 404 kts 97°
2026-05-04 21:43 23.66775 57.74003 16390 ft 398 kts 97°
2026-05-04 21:44 23.66344 57.76963 15846 ft 394 kts 97°
2026-05-04 21:44 23.65913 57.79914 15305 ft 390 kts 97°
2026-05-04 21:44 23.65488 57.82831 14805 ft 386 kts 98°
2026-05-04 21:44 23.65065 57.85725 14276 ft 384 kts 98°
2026-05-04 21:45 23.64650 57.88562 13767 ft 381 kts 98°
2026-05-04 21:45 23.64231 57.91422 13216 ft 378 kts 98°
2026-05-04 21:45 23.63818 57.94242 12729 ft 373 kts 98°
2026-05-04 21:45 23.63416 57.96976 12425 ft 363 kts 98°
2026-05-04 21:46 23.63018 57.99678 12059 ft 359 kts 98°
2026-05-04 21:46 23.62621 58.02368 11595 ft 357 kts 99°
2026-05-04 21:46 23.62232 58.05006 11131 ft 354 kts 99°
2026-05-04 21:46 23.61841 58.07653 10670 ft 351 kts 99°
2026-05-04 21:47 23.61454 58.10271 10397 ft 342 kts 99°
2026-05-04 21:47 23.61085 58.12760 10270 ft 329 kts 99°
2026-05-04 21:47 23.60724 58.15190 10147 ft 316 kts 99°
2026-05-04 21:47 23.60379 58.17511 9878 ft 310 kts 99°
2026-05-04 21:48 23.60038 58.19805 9709 ft 301 kts 99°
2026-05-04 21:48 23.59712 58.21999 9615 ft 289 kts 99°
2026-05-04 21:48 23.59401 58.24085 9463 ft 272 kts 98°
2026-05-04 21:48 23.59371 58.26072 9297 ft 252 kts 79°
2026-05-04 21:49 23.59883 58.27825 9128 ft 235 kts 63°
2026-05-04 21:49 23.60572 58.29399 8745 ft 231 kts 64°
2026-05-04 21:49 23.61253 58.30985 8314 ft 230 kts 64°
2026-05-04 21:49 23.61918 58.32547 7902 ft 228 kts 64°
2026-05-04 21:50 23.62580 58.34106 7509 ft 225 kts 65°
2026-05-04 21:50 23.63238 58.35650 7116 ft 223 kts 65°
2026-05-04 21:50 23.63893 58.37189 6737 ft 221 kts 65°
2026-05-04 21:50 23.64529 58.38682 6487 ft 220 kts 65°
2026-05-04 21:51 23.65179 58.40207 6226 ft 217 kts 65°
2026-05-04 21:51 23.65804 58.41675 6048 ft 213 kts 65°
2026-05-04 21:51 23.66434 58.43154 5975 ft 218 kts 65°
2026-05-04 21:51 23.67071 58.44652 5887 ft 217 kts 65°
2026-05-04 21:52 23.67708 58.46149 5795 ft 217 kts 65°
2026-05-04 21:52 23.68345 58.47647 5649 ft 216 kts 65°
2026-05-04 21:52 23.68966 58.49106 5346 ft 213 kts 65°
2026-05-04 21:52 23.69587 58.50584 4987 ft 211 kts 69°
2026-05-04 21:53 23.69732 58.52155 4845 ft 214 kts 103°
2026-05-04 21:53 23.69049 58.53534 4631 ft 208 kts 136°
2026-05-04 21:53 23.67786 58.54245 4182 ft 206 kts 172°
2026-05-04 21:53 23.66392 58.54010 3777 ft 201 kts 206°
2026-05-04 21:54 23.65273 58.53213 3633 ft 186 kts 217°
2026-05-04 21:54 23.64313 58.52376 3596 ft 165 kts 219°
2026-05-04 21:54 23.63527 58.51504 3641 ft 167 kts 232°
2026-05-04 21:54 23.62935 58.50414 3619 ft 161 kts 245°
2026-05-04 21:55 23.62601 58.49299 3391 ft 156 kts 255°
2026-05-04 21:55 23.62423 58.48140 3166 ft 151 kts 261°
2026-05-04 21:55 23.62314 58.47039 2971 ft 144 kts 263°
2026-05-04 21:55 23.62220 58.45934 2782 ft 146 kts 263°
2026-05-04 21:56 23.62131 58.44852 2589 ft 143 kts 263°
2026-05-04 21:56 23.62043 58.43773 2408 ft 143 kts 263°
2026-05-04 21:56 23.61955 58.42692 2238 ft 144 kts 263°
2026-05-04 21:56 23.61866 58.41604 2044 ft 143 kts 263°
2026-05-04 21:57 23.61779 58.40526 1863 ft 142 kts 263°
2026-05-04 21:57 23.61692 58.39462 1692 ft 142 kts 263°
2026-05-04 21:57 23.61606 58.38397 1517 ft 141 kts 263°
2026-05-04 21:57 23.61519 58.37324 1343 ft 141 kts 263°
2026-05-04 21:58 23.61434 58.36277 1186 ft 139 kts 263°
2026-05-04 21:58 23.61349 58.35220 1026 ft 139 kts 264°
2026-05-04 21:58 23.61265 58.34174 862 ft 139 kts 263°
2026-05-04 21:58 23.61180 58.33124 696 ft 138 kts 264°
2026-05-04 21:59 23.61095 58.32082 518 ft 141 kts 263°
2026-05-04 21:59 23.61011 58.31028 345 ft 141 kts 264°
2026-05-04 21:59 23.60962 58.30321 231 ft 140 kts 264°
2026-05-04 21:59 23.60839 58.28940 35 ft 118 kts 265°
2026-05-04 22:00 23.60790 58.28286 33 ft 74 kts 265°
2026-05-04 22:00 23.60769 58.28013 32 ft 42 kts 266°
2026-05-04 22:00 23.60737 58.27600 33 ft 40 kts 265°
2026-05-04 22:00 23.60722 58.27406 34 ft 35 kts 266°
2026-05-04 22:01 23.60701 58.27192 36 ft 27 kts 258°
2026-05-04 22:01 23.60624 58.27003 36 ft 28 kts 237°
2026-05-04 22:01 23.60522 58.26843 34 ft 24 kts 234°
2026-05-04 22:01 23.60425 58.26796 34 ft 13 kts 137°
2026-05-04 22:02 23.60419 58.26892 34 ft 14 kts 86°
2026-05-04 22:02 23.60428 58.27009 34 ft 17 kts 84°
2026-05-04 22:02 23.60440 58.27140 34 ft 19 kts 86°
2026-05-04 22:02 23.60452 58.27290 34 ft 21 kts 83°
2026-05-04 22:03 23.60464 58.27453 34 ft 22 kts 84°
2026-05-04 22:03 23.60477 58.27614 33 ft 22 kts 85°
2026-05-04 22:03 23.60491 58.27789 33 ft 24 kts 85°
2026-05-04 22:03 23.60505 58.27969 33 ft 20 kts 85°
2026-05-04 22:04 23.60518 58.28124 32 ft 20 kts 85°
2026-05-04 22:04 23.60531 58.28283 34 ft 22 kts 85°
2026-05-04 22:04 23.60533 58.28408 34 ft 13 kts 113°
2026-05-04 22:04 23.60453 58.28440 34 ft 12 kts 176°
2026-05-04 22:05 23.60366 58.28448 34 ft 12 kts 175°
2026-05-04 22:05 23.60287 58.28459 34 ft 10 kts 158°
2026-05-04 22:05 23.60245 58.28509 33 ft 8 kts 130°
2026-05-04 22:05 23.60218 58.28543 33 ft 4 kts 130°
2026-05-04 22:06 23.60215 58.28546 33 ft 1 kts 130°
2026-05-04 22:06 23.60211 58.28552 34 ft 1 kts 130°
2026-05-04 22:06 23.60206 58.28559 34 ft 1 kts 130°
2026-05-04 22:06 23.60199 58.28567 34 ft 2 kts 130°
2026-05-04 22:07 23.60194 58.28574 34 ft 0 kts 130°